Location: Aubervilles
(48.9167°N, 2.3833°E)
Time: 14:56:23
(UTC+00:00)

SKYMED 2 - Pass Details

Date: 03 February 2023
Orbit: 621 x 623 km, 97.9° (Epoch: 30 March)

Event Time Altitude Azimuth Distance (km) Brightness Sun altitude
Rises 16:31:32 0° 34° (NNE) 2,910 6.5 2.0°
Reaches altitude 10° 16:35:34 10° 71° (ENE) 1,996 5.5 1.4°
Drops below altitude 10° 16:37:49 10° 102° (ESE) 1,991 5.7 1.1°
Enters shadow 17:53:53 -33° 9° (N) 7,989 9.1 -10.6°
Maximum altitude 18:13:28 89° 282° (WNW) 629 3.5 -13.8°
